North Platte, NE

7:07 PM CST on February 24, 2017 (GMT -0600)
North Platte Regional-Bird

Weather History for KLBF - December, 2012

Change the Weather History Date:

Tuesday, December 18, 2012

  Actual Average Record
Temperature  
Mean Temperature 38 °F 25 °F  
Max Temperature 50 °F 38 °F 68 °F (2013)
Min Temperature 25 °F 11 °F -19 °F (1983)
Degree Days  
Heating Degree Days 27 40  
Month to date heating degree days 583 699  
Since 1 July heating degree days 2070 2250  
Cooling Degree Days 0 0  
Month to date cooling degree days 0 0  
Year to date cooling degree days 1245 768  
Moisture  
Dew Point 17 °F    
Average Humidity 52    
Maximum Humidity 81    
Minimum Humidity 23    
Precipitation  
Precipitation 0.00 in 0.01 in 0.37 in (1973)
Month to date precipitation 0.08 0.24  
Year to date precipitation 9.75 20.06  
Snow  
Snow 0.00 in 0.20 in 4.10 in (1973)
Month to date snowfall T 2.6  
Since 1 July snowfall 2.7 8.8  
Snow Depth 0.00 in    
Sea Level Pressure  
Sea Level Pressure 29.72 in    
Wind  
Wind Speed 11 mph (WNW)    
Max Wind Speed 26 mph    
Max Gust Speed 35 mph    
Visibility 10 miles    
Events      
T = Trace of Precipitation, MM = Missing Value Source: NWS Daily Summary

Daily Weather History Graph

Daily Weather History Graph

Search for Another Location

Airport or City:

Trip Planner

Search our weather history database for the weather conditions in past years. The results will help you decide how hot, cold, wet, or windy it might be!

Date:

Astronomy

Dec. 18, 2012 Rise Set
Actual Time 8:03 AM CST 5:16 PM CST
Civil Twilight 7:31 AM CST 5:47 PM CST
Nautical Twilight 6:57 AM CST 6:22 PM CST
Astronomical Twilight 6:23 AM CST 6:55 PM CST
Moon 11:41 AM CST (12/18) 11:47 PM CST (12/18)
Length of Visible Light 10h 15m
Length of Day
9h 12m
Waxing Crescent, 35% of the Moon is Illuminated
Dec 18
Waxing Crescent
Dec 19
First Quarter
Dec 28
Full
Jan 4
Last Quarter
Jan 11
New

Hourly Weather History & Observations

Time (CST) Temp. Windchill Dew Point Humidity Pressure Visibility Wind Dir Wind Speed Gust Speed Precip Events Conditions
12:53 AM 39.9 °F 31.4 °F 26.1 °F 58% 29.53 in 10.0 mi West 16.1 mph - N/A   Clear
1:53 AM 39.9 °F 32.1 °F 25.0 °F 55% 29.52 in 10.0 mi West 13.8 mph - N/A   Clear
2:53 AM 41.0 °F 32.2 °F 24.1 °F 51% 29.55 in 10.0 mi West 18.4 mph - N/A   Clear
3:53 AM 43.0 °F 33.5 °F 21.9 °F 43% 29.57 in 10.0 mi West 24.2 mph 31.1 mph N/A   Clear
4:53 AM 41.0 °F 31.4 °F 17.1 °F 38% 29.60 in 10.0 mi WNW 21.9 mph - N/A   Clear
5:53 AM 39.0 °F 29.0 °F 16.0 °F 39% 29.64 in 10.0 mi WNW 20.7 mph - N/A   Clear
6:53 AM 34.0 °F 26.6 °F 15.1 °F 46% 29.69 in 10.0 mi WNW 9.2 mph - N/A   Clear
7:53 AM 33.1 °F 24.9 °F 15.1 °F 48% 29.74 in 10.0 mi WNW 10.4 mph - N/A   Clear
8:53 AM 35.1 °F 28.6 °F 16.0 °F 46% 29.77 in 10.0 mi WNW 8.1 mph - N/A   Clear
9:53 AM 39.9 °F 32.1 °F 15.1 °F 36% 29.77 in 10.0 mi NW 13.8 mph - N/A   Clear
10:53 AM 44.1 °F 35.2 °F 12.9 °F 28% 29.79 in 10.0 mi WNW 23.0 mph 29.9 mph N/A   Clear
11:53 AM 46.9 °F - 16.0 °F 29% 29.77 in 10.0 mi NW 19.6 mph - N/A   Clear
12:53 PM 48.0 °F - 17.1 °F 29% 29.74 in 10.0 mi NW 15.0 mph 24.2 mph N/A   Clear
1:53 PM 48.9 °F - 16.0 °F 27% 29.72 in 10.0 mi NW 18.4 mph 25.3 mph N/A   Partly Cloudy
2:53 PM 48.9 °F - 14.0 °F 25% 29.72 in 10.0 mi NW 11.5 mph - N/A   Clear
3:53 PM 48.0 °F - 12.0 °F 24% 29.74 in 10.0 mi WNW 6.9 mph - N/A   Clear
4:53 PM 39.0 °F - 12.9 °F 34% 29.77 in 10.0 mi Calm Calm - N/A   Overcast
5:53 PM 37.9 °F - 16.0 °F 41% 29.78 in 10.0 mi Calm Calm - N/A   Overcast
6:53 PM 34.0 °F - 19.0 °F 54% 29.81 in 10.0 mi Calm Calm - N/A   Overcast
7:53 PM 30.9 °F - 15.1 °F 52% 29.82 in 10.0 mi Calm Calm - N/A   Overcast
8:53 PM 33.1 °F 30.0 °F 17.1 °F 52% 29.82 in 10.0 mi South 3.5 mph - N/A   Overcast
9:53 PM 32.0 °F - 17.1 °F 54% 29.80 in 10.0 mi Calm Calm - N/A   Overcast
10:53 PM 30.9 °F - 19.0 °F 61% 29.79 in 10.0 mi Calm Calm - N/A   Overcast
11:53 PM 30.0 °F - 19.9 °F 66% 29.81 in 10.0 mi Calm Calm - N/A   Overcast